DW9987 Weather Reports


Display with metric or nautical units.
time (UTC)temp
F
wind
direction
speed
MPH
gust
MPH
rain 1hr
in
rain 24hr
in
rain mn
in
humidity
%
barometer
mb
20260831094531 70 242 0.0 2.0 0.00 0.17 0.00 87 1013.3
20260831093041 70 236 0.0 2.0 0.00 0.17 0.00 88 1013.3
20260831091520 70 221 0.0 2.0 0.00 0.17 0.00 88 1013.5
20260831090015 71 265 0.0 0.0 0.00 0.17 0.00 87 1013.6
20260831084514 71 208 0.0 0.0 0.00 0.17 0.00 87 1013.3
20260831083012 71 199 0.0 4.0 0.00 0.17 0.00 86 1013.5
20260831081511 72 213 0.0 4.0 0.00 0.17 0.00 86 1013.3
20260831080009 72 225 0.0 4.0 0.00 0.17 0.00 85 1013.4
20260831074508 72 216 1.0 5.0 0.00 0.17 0.00 84 1013.5
20260831073006 73 195 2.0 5.0 0.00 0.17 0.00 84 1013.5
20260831071506 73 199 2.0 7.0 0.00 0.17 0.00 84 1013.6
20260831070003 73 226 3.0 7.0 0.00 0.17 0.00 84 1013.6
20260831064502 74 225 2.0 6.0 0.00 0.17 0.00 84 1013.7
20260831063002 74 201 3.0 7.0 0.00 0.17 0.00 83 1013.7
20260831061600 74 224 3.0 10.0 0.00 0.17 0.00 84 1013.6
20260831060100 74 211 3.0 7.0 0.00 0.17 0.00 85 1013.9
20260831054559 74 192 2.0 7.0 0.00 0.18 0.00 86 1013.7
20260831053129 74 227 2.0 7.0 0.00 0.18 0.00 87 1013.7
20260831051555 74 197 1.0 6.0 0.00 0.18 0.00 87 1013.7
20260831050053 74 192 2.0 9.0 0.00 0.18 0.00 86 1013.9
20260831044638 74 198 2.0 8.0 0.00 0.18 0.18 88 1013.9
20260831043052 74 196 3.0 10.0 0.00 0.18 0.18 91 1014.0
20260831041557 73 225 3.0 7.0 0.00 0.18 0.18 95 1014.1
20260831040051 72 209 1.0 3.0 0.00 0.18 0.18 96 1014.5
20260831034553 72 155 0.0 0.0 0.00 0.18 0.18 95 1014.5
20260831033105 72 203 0.0 3.0 0.00 0.18 0.18 95 1014.5
20260831031552 72 204 0.0 1.0 0.00 0.18 0.18 95 1014.8
20260831030050 72 206 0.0 3.0 0.00 0.18 0.18 95 1015.0
20260831024549 72 204 0.0 4.0 0.00 0.18 0.18 95 1014.8
20260831023048 72 242 1.0 3.0 0.01 0.18 0.18 95 1015.2
20260831021548 72 242 0.0 0.0 0.01 0.18 0.18 95 1015.5
20260831020048 72 242 0.0 0.0 0.02 0.18 0.18 95 1015.2
20260831014549 72 242 0.0 0.0 0.02 0.18 0.18 95 1014.7
20260831013047 72 242 0.0 0.0 0.01 0.17 0.17 94 1014.9
20260831011554 72 242 0.0 0.0 0.01 0.17 0.17 95 1015.0
20260831010059 72 242 0.0 0.0 0.00 0.16 0.16 94 1014.9
20260831004545 72 242 0.0 0.0 0.00 0.16 0.16 94 1014.7
20260831003045 72 201 0.0 0.0 0.00 0.16 0.16 94 1014.5
20260831001544 72 209 0.0 1.0 0.00 0.16 0.16 94 1013.9
20260831000045 73 323 0.0 0.0 0.00 0.16 0.16 94 1014.8
20260830234543 73 323 0.0 0.0 0.01 0.16 0.16 93 1015.2
20260830233043 73 323 1.0 3.0 0.02 0.16 0.16 93 1015.0
20260830231542 73 187 0.0 0.0 0.02 0.16 0.16 93 1014.7
20260830230042 74 187 0.0 2.0 0.02 0.16 0.16 92 1014.7
20260830224541 74 178 0.0 0.0 0.01 0.16 0.15 91 1015.2
20260830223041 75 178 0.0 0.0 0.00 0.15 0.14 90 1015.5
20260830221540 75 178 0.0 0.0 0.00 0.15 0.14 89 1015.5
20260830220040 75 178 0.0 0.0 0.00 0.15 0.14 89 1015.4
20260830214539 76 178 0.0 0.0 0.00 0.15 0.14 88 1015.1
20260830213053 76 178 0.0 0.0 0.00 0.15 0.14 87 1014.9
20260830211539 77 178 0.0 0.0 0.01 0.15 0.14 84 1015.1
20260830210038 78 196 0.0 1.0 0.01 0.15 0.14 82 1015.4
20260830204542 78 193 2.0 4.0 0.01 0.15 0.14 78 1015.4
20260830203037 78 188 1.0 5.0 0.01 0.15 0.14 78 1015.4
20260830201537 76 194 0.0 3.0 0.00 0.14 0.13 85 1015.5
20260830200036 76 195 0.0 0.0 0.00 0.14 0.13 86 1015.5
20260830194536 77 194 0.0 0.0 0.00 0.14 0.13 81 1015.4
20260830193036 78 252 0.0 2.0 0.00 0.14 0.13 76 1015.5
20260830191536 78 261 0.0 4.0 0.00 0.14 0.13 76 1015.4
20260830190034 79 197 0.0 5.0 0.00 0.14 0.13 74 1015.0
20260830184539 79 203 3.0 8.0 0.00 0.14 0.13 72 1015.0
20260830183033 79 219 2.0 8.0 0.00 0.14 0.13 71 1014.7
20260830181533 80 194 2.0 9.0 0.00 0.14 0.13 72 1014.6
20260830180033 80 199 6.0 11.0 0.00 0.14 0.13 74 1014.3
20260830174529 79 192 6.0 12.0 0.00 0.14 0.13 74 1014.2
20260830173025 78 183 4.0 14.0 0.00 0.14 0.13 77 1014.5
20260830171522 77 192 7.0 14.0 0.00 0.14 0.13 79 1014.5
20260830170018 73 182 3.0 12.0 0.00 0.14 0.13 86 1014.4
20260830164514 72 216 5.0 18.0 0.00 0.14 0.13 87 1014.5
20260830163014 72 211 5.0 15.0 0.00 0.14 0.13 87 1014.5
20260830161511 72 203 6.0 10.0 0.00 0.14 0.13 86 1015.1
20260830160010 71 185 4.0 11.0 0.00 0.14 0.13 87 1015.1
20260830154508 71 216 3.0 11.0 0.00 0.14 0.13 89 1014.9
20260830153005 70 251 3.0 13.0 0.00 0.14 0.13 89 1014.8
20260830151504 69 206 4.0 13.0 0.00 0.14 0.13 91 1014.4
20260830150006 69 209 6.0 16.0 0.00 0.14 0.13 90 1013.9
20260830144504 69 190 3.0 12.0 0.00 0.14 0.13 91 1014.2
20260830143100 69 197 3.0 10.0 0.00 0.14 0.13 92 1015.1
20260830141558 68 234 2.0 7.0 0.01 0.14 0.13 94 1015.1
20260830140057 68 184 3.0 8.0 0.02 0.14 0.13 94 1015.2
20260830134558 67 190 1.0 7.0 0.03 0.14 0.13 93 1015.0
20260830133056 67 175 1.0 5.0 0.05 0.14 0.13 93 1015.2
20260830131555 68 194 0.0 8.0 0.05 0.13 0.12 93 1015.6
20260830130107 67 194 2.0 6.0 0.05 0.12 0.11 94 1016.1
20260830124558 67 194 2.0 7.0 0.06 0.11 0.10 94 1016.2
20260830123054 67 187 0.0 3.0 0.04 0.09 0.08 95 1016.2
20260830121558 66 218 0.0 0.0 0.04 0.08 0.07 94 1016.4
20260830120053 66 219 0.0 0.0 0.03 0.07 0.06 94 1016.5
20260830114605 66 218 0.0 0.0 0.01 0.05 0.04 94 1015.8
20260830113049 66 218 0.0 0.0 0.01 0.05 0.04 93 1015.8
20260830111549 66 218 0.0 0.0 0.00 0.04 0.03 92 1015.3
20260830110047 66 218 0.0 0.0 0.00 0.04 0.03 92 1014.7
20260830104547 66 218 0.0 2.0 0.00 0.04 0.03 91 1014.7
20260830103047 66 212 0.0 4.0 0.02 0.04 0.03 91 1014.7
20260830101548 66 230 0.0 0.0 0.02 0.04 0.03 90 1014.6
20260830100043 66 213 0.0 2.0 0.02 0.04 0.03 89 1014.5